GalileoSat-26

operational
NORAD ID: 43565 Int'l Des: 2018-060 Owner: GSAEU Country: I-EU Constellation: Galileo
MEOCIRCULAR

关于 GalileoSat-26

正在加载描述...

实时位置

正在加载3D地球...

即将过境

高度历史

Altitude vs Time

uPlot chart will show altitude changes over time

两行轨道根数

1 43565U 18060B 25299.23676072 -.00000074 00000-0 00000-0 0 9990
2 43565 57.2421 348.1055 0006292 249.8020 110.1966 1.70476015 45224
Epoch: Oct 26, 2025 • Age: 9 hours

当前状态

高度 23220.5 km
速度 3.67 km/s
星下点 -47.47°S, 49.37°W
发射日期 Jul 25, 2018
运行时间 7.2 years
类型 navigation

技术详情

分类 Payload
质量 715.00 kg
干质量 700.00 kg
总质量 715.00 kg
长度 2.70 m
直径 1.60 m
跨度 14.70 m
形状 Box+2 pan
制造商 OHB
平台类型 GalileoSat
阶段状态 In Orbit
所有者/国家 GSAEU/I-EU

大型星座

Loading constellations...